"TOA5","AWS1","CR1000","7964","CR1000.Std.14","CPU:AWS1_114.CR1","64363","TBL110"
"TIMESTAMP","RECORD","Wind_spd_WVc(1)","Wind_spd_WVc(2)","Air_Temp_Avg","Humidity_Avg","SW_upper_Wm2_Avg","Rain_Tot","Press_Avg","Issui_Tot","Depth_cm","SR50A_Raw","Quality","Ground_Temp_Avg(1)","Ground_Temp_Avg(2)","SW_lower_Wm2_Avg","Albedo_Avg","SWC_per(1)","SWC_per(2)","Period(1)","Period(2)"
"TS","RN","","","","","","","","","","","","","","","","","","",""
"","","WVc","WVc","Avg","Avg","Avg","Tot","Avg","Tot","Smp","Smp","Smp","Avg","Avg","Avg","Avg","Smp","Smp","Smp","Smp"
"2016-11-04 00:00:00",260413,0.599,162.4,0.901,87.5,0,0,864.3803,0,-1.415,3.188,187,9.09,10.46,1.202105,0,50.99,58.26,33.54,35.28
"2016-11-04 00:10:00",260414,0.698,265.1,1.146,83.2,0,0,864.3024,0,-1.29,3.186,194,9.12,10.43,1.588903,0,51.05,58.26,33.56,35.28
"2016-11-04 00:20:00",260415,0.503,333.4,1.332,80.2,0,0,864.3276,0,-1.717,3.19,185,9.08,10.45,1.759548,0,51.05,58.26,33.56,35.28
"2016-11-04 00:30:00",260416,0.402,314.3,1.249,82.3,0,0,864.3403,0,-1.917,3.192,196,9.08,10.46,1.607863,0,51.05,58.26,33.56,35.28
"2016-11-04 00:40:00",260417,0.498,330.3,1.065,86,0,0,864.3024,0,-1.616,3.191,200,9.08,10.45,1.418257,0,50.99,58.26,33.54,35.28
"2016-11-04 00:50:00",260418,0.417,309.9,0.794,89.2,0,0,864.4625,0,-1.789,3.194,188,9,10.39,1.020083,0,51.05,58.26,33.56,35.28
"2016-11-04 01:00:00",260419,0.173,296.2,0.574,92.5,0,0,864.5553,0,-2.965,3.207,194,9.01,10.38,0.6787913,0,51.05,58.26,33.56,35.28
"2016-11-04 01:10:00",260420,0.127,336.6,0.414,95.8,0,0,864.5553,0,-1.463,3.193,206,9.06,10.4,0.318539,0,51.05,58.26,33.56,35.28
"2016-11-04 01:20:00",260421,0.197,341.7,0.338,98.9,0,0,864.7006,0,-1.313,3.191,203,9,10.44,0.2730334,0,50.99,58.26,33.54,35.28
"2016-11-04 01:30:00",260422,0.299,245.7,0.407,99.8,0,0,864.7133,0,-1.263,3.19,188,8.99,10.46,0.4550557,0,50.99,58.26,33.54,35.28
"2016-11-04 01:40:00",260423,0.53,248.7,0.491,98.5,0,0,864.5595,0,-1.313,3.191,197,8.99,10.46,0.5157297,0,51.05,58.32,33.56,35.29
"2016-11-04 01:50:00",260424,0.562,288.9,0.42,98.6,0,0,864.5553,0,-1.413,3.192,197,8.99,10.46,0.4626399,0,51.05,58.26,33.56,35.28
"2016-11-04 02:00:00",260425,0.714,300.8,0.445,96.9,0,0,864.5827,0,-1.889,3.196,197,8.96,10.42,0.64087,0,50.99,58.26,33.54,35.28
"2016-11-04 02:10:00",260426,0.923,292,0.518,94.4,0,0,864.7217,0,-2.665,3.204,189,8.96,10.4,0.6825835,0,51.05,58.26,33.56,35.28
"2016-11-04 02:20:00",260427,0.792,276.2,0.422,95.3,0,0,864.8651,0,-2.839,3.206,187,8.99,10.38,0.4778084,0,50.99,58.26,33.54,35.28
"2016-11-04 02:30:00",260428,1.123,316,0.517,93.7,0,0,864.8882,0,-3.016,3.206,192,8.95,10.38,0.7622182,0,50.99,58.26,33.54,35.28
"2016-11-04 02:40:00",260429,1.339,302.3,0.638,89.9,0,0,864.9051,0,-1.714,3.193,218,8.92,10.38,0.8835663,0,51.05,58.32,33.56,35.29
"2016-11-04 02:50:00",260430,1.601,320.8,0.677,87.5,0,0,864.8165,0,-0.913,3.185,200,8.91,10.38,1.016291,0,50.99,58.26,33.54,35.28
"2016-11-04 03:00:00",260431,0.963,314.8,0.641,88.1,0,0,864.8102,0,-0.914,3.186,190,8.91,10.38,0.8380607,0,51.05,58.32,33.56,35.29
"2016-11-04 03:10:00",260432,0.518,213.2,0.534,90.1,0,0,864.8039,0,-0.812,3.185,195,8.94,10.38,0.6143251,0,51.05,58.32,33.56,35.29
"2016-11-04 03:20:00",260433,0.686,217,0.451,90.9,0,0,864.7913,0,-0.812,3.186,200,8.88,10.38,0.4550557,0,51.05,58.32,33.56,35.29
"2016-11-04 03:30:00",260434,0.86,222.1,0.391,89.9,0,0,864.8082,0,-0.938,3.187,196,8.88,10.38,0.5764038,0,51.05,58.32,33.56,35.29
"2016-11-04 03:40:00",260435,0.821,243.5,0.428,89.1,0,0,864.8082,0,-1.038,3.188,203,8.84,10.39,0.5726117,0,51.05,58.26,33.56,35.28
"2016-11-04 03:50:00",260436,0.728,251.9,0.415,88.9,0,0,865.002,0,-0.938,3.187,200,8.82,10.4,0.6825835,0,51.05,58.32,33.56,35.29
"2016-11-04 04:00:00",260437,0.783,191.3,0.417,87.7,0,0,865.0485,0,-1.463,3.192,197,8.82,10.42,0.6863756,0,51.05,58.32,33.56,35.29
"2016-11-04 04:10:00",260438,0.742,184,0.424,87.8,0,0,865.0611,0,-1.613,3.194,192,8.82,10.43,0.7394654,0,51.05,58.32,33.56,35.29
"2016-11-04 04:20:00",260439,0.766,171.8,0.427,88.2,0,0,864.8587,0,-1.813,3.196,187,8.85,10.39,0.7356732,0,51.05,58.32,33.56,35.29
"2016-11-04 04:30:00",260440,0.699,193.5,0.446,87.8,0,0,864.8082,0,-1.789,3.195,192,8.84,10.38,0.8721899,0,51.05,58.32,33.56,35.29
"2016-11-04 04:40:00",260441,0.852,187.2,0.584,84,0,0,864.7365,0,-1.689,3.193,191,8.79,10.37,1.186937,0,51.05,58.32,33.56,35.29
"2016-11-04 04:50:00",260442,0.599,176.5,0.716,81.7,0,0,864.7365,0,-1.715,3.193,182,8.78,10.38,1.304493,0,51.05,58.32,33.56,35.29
"2016-11-04 05:00:00",260443,0.581,200,0.639,83.8,0,0,864.8102,0,-1.564,3.192,178,8.79,10.33,1.130055,0,51.05,58.32,33.56,35.29
"2016-11-04 05:10:00",260444,0.725,268.4,0.749,81.9,0,0,864.8102,0,-1.165,3.187,182,8.75,10.31,1.380335,0,51.05,58.32,33.56,35.29
"2016-11-04 05:20:00",260445,0.741,245.2,0.884,80.9,0,0,864.8082,0,-0.763,3.182,192,8.73,10.3,1.437217,0,51.05,58.32,33.56,35.29
"2016-11-04 05:30:00",260446,0.649,221.5,0.858,82.3,0,0,864.7955,0,-1.065,3.186,174,8.73,10.29,1.277948,0,51.05,58.32,33.56,35.29
"2016-11-04 05:40:00",260447,0.763,176.4,0.77,84.2,0,0,864.7807,0,-1.164,3.187,191,8.73,10.29,1.137639,0,51.05,58.32,33.56,35.29
"2016-11-04 05:50:00",260448,0.632,208.6,0.753,83.8,0,0,864.8082,0,-1.84,3.194,192,8.72,10.29,1.133847,0,51.05,58.32,33.56,35.29
"2016-11-04 06:00:00",260449,0.703,220.2,0.756,85.9,0,0,864.8102,0,-1.664,3.192,173,8.68,10.29,0.9821618,0,51.05,58.32,33.56,35.29
"2016-11-04 06:10:00",260450,0.633,207.6,0.758,85.9,0,0,864.9072,0,-1.415,3.189,187,8.66,10.29,1.061797,0,51.1,58.32,33.57,35.29
"2016-11-04 06:20:00",260451,0.53,218.6,0.868,84.8,0.1848495,0,865.0231,0,-1.315,3.188,190,8.68,10.31,1.270364,0.817,51.1,58.32,33.57,35.29
"2016-11-04 06:30:00",260452,0.514,210.6,0.946,83.2,2.733413,0,865.158,0,-1.465,3.189,195,8.7,10.32,1.827807,0.871,51.05,58.32,33.56,35.29
"2016-11-04 06:40:00",260453,0.577,210.1,0.932,83.4,10.56002,0,865.3077,0,-1.54,3.19,192,8.72,10.33,3.064041,0.306,51.1,58.32,33.57,35.29
"2016-11-04 06:50:00",260454,0.66,252.8,0.943,83.4,20.32952,0,865.3077,0,-1.465,3.189,190,8.71,10.29,4.622607,0.229,51.1,58.32,33.57,35.29
"2016-11-04 07:00:00",260455,0.685,274,0.913,83.6,27.16502,0,865.3161,0,-1.515,3.189,195,8.67,10.27,5.441707,0.202,51.1,58.32,33.57,35.29
"2016-11-04 07:10:00",260456,0.294,203.2,0.934,85.1,34.51574,0,865.3625,0,-1.14,3.186,196,8.65,10.25,6.219094,0.18,51.05,58.32,33.56,35.29
"2016-11-04 07:20:00",260457,0.47,178.1,0.855,86.6,31.48342,0,865.3119,0,-1.515,3.19,191,8.65,10.25,8.255467,0.26,51.05,58.32,33.56,35.29
"2016-11-04 07:30:00",260458,0.683,148.1,1.069,87.2,34.29942,0,865.3266,0,-1.29,3.186,183,8.65,10.26,10.78103,0.317,51.1,58.32,33.57,35.29
"2016-11-04 07:40:00",260459,0.448,206.3,1.21,85.8,84.25993,0,865.5585,0,-1.065,3.183,195,8.65,10.26,13.60616,0.171,51.05,58.32,33.56,35.29
"2016-11-04 07:50:00",260460,0.606,280.8,1.433,82.8,59.63167,0,865.6828,0,-0.815,3.179,192,8.65,10.25,16.49577,0.296,51.05,58.32,33.56,35.29
"2016-11-04 08:00:00",260461,0.564,174.7,2.048,82.4,57.42528,0,865.8556,0,-0.864,3.175,186,8.65,10.21,19.30573,0.346,51.1,58.32,33.57,35.29
"2016-11-04 08:10:00",260462,0.555,192.5,2.226,78.96,71.84748,0,866.0727,0,-1.567,3.182,190,8.65,10.2,17.40588,0.268,51.05,58.32,33.56,35.29
"2016-11-04 08:20:00",260463,0.618,145.8,2.587,79,51.7854,0,866.0095,0,-0.762,3.171,185,8.65,10.24,19.79492,0.388,51.1,58.32,33.57,35.29
"2016-11-04 08:30:00",260464,0.782,172.9,2.884,77.42,49.80712,0,865.9463,0,-0.913,3.171,196,8.65,10.23,20.45475,0.411,51.05,58.32,33.56,35.29
"2016-11-04 08:40:00",260465,0.554,266.7,2.774,75.03,50.70383,0,865.8915,0,-1.391,3.18,188,8.65,10.21,20.11725,0.397,51.05,58.32,33.56,35.29
"2016-11-04 08:50:00",260466,0.481,265.8,2.662,76.03,52.63493,0,866.0558,0,-0.46,3.167,190,8.65,10.21,19.79492,0.376,51.1,58.32,33.57,35.29
"2016-11-04 09:00:00",260467,1.538,166.2,3.522,68.9,53.34679,0,866.0664,0,-0.961,3.169,190,8.64,10.21,20.90601,0.392,51.1,58.38,33.57,35.31
"2016-11-04 09:10:00",260468,1.314,180.8,3.761,64.06,54.87671,0,866.0222,0,-1.564,3.174,193,8.63,10.21,20.67849,0.377,51.1,58.38,33.57,35.31
"2016-11-04 09:20:00",260469,1.065,163.9,4.177,60.61,56.27685,0,866.0664,0,-0.451,3.159,203,8.61,10.21,20.32582,0.361,51.1,58.38,33.57,35.31
"2016-11-04 09:30:00",260470,0.781,244.5,4.255,56.52,57.34269,0.5,866.079,0,-1.106,3.166,194,8.58,10.23,19.79113,0.345,51.1,58.32,33.57,35.29
"2016-11-04 09:40:00",260471,0.759,265.4,4.328,55.51,58.12928,0,866.2477,0,-0.603,3.161,190,8.57,10.22,20.46992,0.352,51.1,58.38,33.57,35.31
"2016-11-04 09:50:00",260472,0.728,285.9,4.404,55.14,59.52942,0,866.2856,0,-0.702,3.161,191,8.56,10.24,21.60756,0.363,51.05,58.32,33.56,35.29
"2016-11-04 10:00:00",260473,0.786,227.7,5.128,54.53,62.87244,0,866.3256,0,-1.052,3.162,211,8.56,10.23,24.62609,0.392,51.1,58.32,33.57,35.29
"2016-11-04 10:10:00",260474,0.837,270.5,4.974,51.94,63.2854,0,866.2321,0,-1.405,3.166,220,8.57,10.22,26.37047,0.417,51.1,58.38,33.57,35.31
"2016-11-04 10:20:00",260475,0.543,237.3,5.112,51.44,88.02283,0,866.1212,0,-1.395,3.162,184,8.62,10.22,29.20291,0.352,51.1,58.32,33.57,35.29
"2016-11-04 10:30:00",260476,1.024,240.6,5.834,50.81,125.4246,0,866.02,0,-2.222,3.17,189,8.61,10.22,32.17109,0.308,51.1,58.38,33.57,35.31
"2016-11-04 10:40:00",260477,0.827,263.9,5.612,49.56,152.7828,0,865.988,0,-1.531,3.162,195,8.63,10.19,36.8866,0.291,51.1,58.32,33.57,35.29
"2016-11-04 10:50:00",260478,0.686,333.9,5.966,49.15,179.3131,0,865.9851,0,-1.214,3.158,190,8.61,10.18,40.33094,0.249,51.05,58.38,33.56,35.31
"2016-11-04 11:00:00",260479,0.684,223.5,6.213,48.76,160.4068,0,866.005,0,-1.958,3.165,195,8.62,10.19,47.10617,0.35,51.1,58.38,33.57,35.31
"2016-11-04 11:10:00",260480,0.844,271.3,5.849,48.46,141.7099,0,865.9857,0,-1.273,3.16,190,8.7,10.15,57.59658,0.424,51.05,58.38,33.56,35.31
"2016-11-04 11:20:00",260481,0.806,145.3,6.339,48.45,286.0969,0,865.9793,0,-1.921,3.163,189,8.65,10.14,66.65903,0.252,51.1,58.32,33.57,35.29
"2016-11-04 11:30:00",260482,0.861,205.9,6.219,48.71,140.2928,0,865.8445,0,-1.686,3.158,195,8.64,10.15,69.53942,0.54,51.05,58.38,33.56,35.31
"2016-11-04 11:40:00",260483,0.719,316.4,6.643,47.13,459.2422,0,865.7792,0,-1.785,3.158,194,8.69,10.14,88.09538,0.262,51.1,58.38,33.57,35.31
"2016-11-04 11:50:00",260484,0.974,274.3,6.528,47.68,707.1744,0,865.6892,0,-1.762,3.159,194,8.74,10.15,95.5064,0.135,51.05,58.38,33.56,35.31
"2016-11-04 12:00:00",260485,1.3,290.3,6.29,48.06,667.6287,0,865.5789,0,-2.041,3.166,199,8.73,10.12,94.32557,0.14,51.1,58.38,33.57,35.31
"2016-11-04 12:10:00",260486,1.033,309.2,6.52,48.24,639.5169,0,865.608,0,-2.06,3.163,195,8.71,10.08,95.08001,0.146,51.05,58.38,33.56,35.31
"2016-11-04 12:20:00",260487,0.792,359.9,6.833,47.82,616.2126,0,865.3863,0,-3.639,3.177,200,8.77,10.05,90.79344,0.146,51.05,58.38,33.56,35.31
"2016-11-04 12:30:00",260488,0.669,189.6,6.965,47.52,673.4149,0,865.2376,0,-1.048,3.15,190,8.72,10.03,97.94736,0.145,51.1,58.38,33.57,35.31
"2016-11-04 12:40:00",260489,0.804,327.7,6.876,46.63,653.9899,0,865.0688,0,-1.252,3.153,186,8.69,10.03,94.47798,0.144,51.05,58.38,33.56,35.31
"2016-11-04 12:50:00",260490,0.707,291.2,6.814,47.3,641.1021,0,864.8918,0,-1.304,3.154,202,8.69,10.03,86.61783,0.135,51.05,58.32,33.56,35.29
"2016-11-04 13:00:00",260491,0.543,258.3,7.114,46.81,629.5536,0,864.7402,0,-1.073,3.151,196,8.75,10.03,79.29625,0.126,51.05,58.32,33.56,35.29
"2016-11-04 13:10:00",260492,0.584,280.5,6.835,46.46,618.2106,0,864.6179,0,-1.506,3.156,218,8.81,10.03,73.91127,0.12,51.05,58.32,33.56,35.29
"2016-11-04 13:20:00",260493,0.693,318,6.812,46.44,596.8455,0,864.5963,0,-1.937,3.161,204,8.81,10.03,63.65676,0.107,51.05,58.38,33.56,35.31
"2016-11-04 13:30:00",260494,0.564,259.3,6.716,47.99,559.823,0,864.4754,0,-2.134,3.163,229,8.81,10.02,48.54692,0.087,51.05,58.38,33.56,35.31
"2016-11-04 13:40:00",260495,0.561,331.8,6.979,49.25,318.5659,0,864.3773,0,-1.982,3.161,178,8.8,10.01,37.29536,0.119,51.05,58.32,33.56,35.29
"2016-11-04 13:50:00",260496,0.538,317.1,6.621,48.22,78.47309,0,864.3934,0,-2.417,3.168,196,8.8,10.01,21.03875,0.298,51.05,58.32,33.56,35.29
"2016-11-04 14:00:00",260497,0.39,289.6,6.126,50.89,45.31891,0,864.373,0,-2.904,3.175,199,8.81,10.02,11.69042,0.258,51.05,58.38,33.56,35.31
"2016-11-04 14:10:00",260498,0.592,271.1,5.8,51.21,44.78905,0,864.3925,0,-2.604,3.173,205,8.75,9.95,8.071637,0.18,51.05,58.38,33.56,35.31
"2016-11-04 14:20:00",260499,0.635,274.2,5.732,51.49,44.49459,0,864.4763,0,-2.201,3.169,202,8.71,9.92,6.923469,0.156,51.1,58.38,33.57,35.31
"2016-11-04 14:30:00",260500,0.349,266.7,5.71,51.67,42.05423,0,864.5188,0,-2.711,3.175,194,8.69,9.93,6.203506,0.147,51.05,58.38,33.56,35.31
"2016-11-04 14:40:00",260501,0.384,262.6,5.602,52.14,39.60895,0,864.6137,0,-1.519,3.163,192,8.73,9.96,5.699971,0.144,51.05,58.38,33.56,35.31
"2016-11-04 14:50:00",260502,0.34,280.8,5.534,52.35,37.1062,0,864.6362,0,-2.195,3.17,188,8.78,10.04,5.245894,0.141,51.05,58.38,33.56,35.31
"2016-11-04 15:00:00",260503,0.257,249.2,5.509,52.69,34.62826,0,864.6781,0,-1.016,3.159,188,8.8,10.1,4.867221,0.14,51.05,58.38,33.56,35.31
"2016-11-04 15:10:00",260504,0.4,218,5.511,53.88,32.40008,0,864.7062,0,-1.75,3.166,190,8.81,10.11,4.613383,0.142,51.05,58.38,33.56,35.31
"2016-11-04 15:20:00",260505,0.296,233.1,5.484,54.05,29.65614,0,864.7482,0,-1.599,3.164,191,8.82,10.1,4.056178,0.137,50.99,58.38,33.54,35.31
"2016-11-04 15:30:00",260506,0.286,210.3,5.469,53.91,27.41914,0,864.7461,0,-2.182,3.171,191,8.82,10.09,3.665735,0.134,51.05,58.38,33.56,35.31
"2016-11-04 15:40:00",260507,0.309,210.4,5.254,55.74,24.40754,0,864.7297,0,-1.979,3.169,189,8.84,10,3.116067,0.128,51.05,58.32,33.56,35.29
"2016-11-04 15:50:00",260508,0.283,208.1,5.164,56.14,21.78907,0,864.7172,0,-1.882,3.17,194,8.85,9.95,2.934108,0.135,51.05,58.38,33.56,35.31
"2016-11-04 16:00:00",260509,0.35,210.8,4.975,56.49,19.1195,0,864.7172,0,-1.958,3.171,196,8.87,9.94,2.710448,0.142,51.05,58.38,33.56,35.31
"2016-11-04 16:10:00",260510,0.377,207.3,4.849,57.56,16.28087,0,864.7277,0,-1.707,3.17,183,8.89,9.95,2.342737,0.144,50.99,58.32,33.54,35.29
"2016-11-04 16:20:00",260511,0.341,208.8,4.737,57.19,13.17882,0,864.8416,0,-1.809,3.171,189,8.9,9.98,2.255548,0.172,50.99,58.38,33.54,35.31
"2016-11-04 16:30:00",260512,0.173,213.2,4.611,57.86,9.420453,0,864.9637,0,-1.721,3.171,198,8.91,10.02,1.899267,0.203,51.05,58.38,33.56,35.31
"2016-11-04 16:40:00",260513,0.107,178.8,4.396,58.32,5.166765,0,864.9742,0,-1.633,3.172,191,8.91,10.06,1.315578,0.262,50.99,58.32,33.54,35.29
"2016-11-04 16:50:00",260514,0.006,159.2,4.136,58.79,0.9870055,0,864.9947,0,-1.244,3.169,211,8.89,10.08,0.7924335,0.515,50.99,58.38,33.54,35.31
"2016-11-04 17:00:00",260515,0.069,164.1,3.83,62.13,0,0,865.063,0,-1.002,3.169,230,8.88,10.1,0.3564313,0,50.99,58.38,33.54,35.31
"2016-11-04 17:10:00",260516,0.105,180.8,3.25,68.26,0,0,864.9993,0,-0.557,3.168,272,8.86,10.05,0.03412762,0,51.05,58.38,33.56,35.31
"2016-11-04 17:20:00",260517,0.425,305.8,3.338,63.05,0,0,865.0303,0,-1.61,3.171,222,8.9,10.03,0.8835599,0,50.99,58.38,33.54,35.31
"2016-11-04 17:30:00",260518,0.339,17.91,4.301,55.03,0,0,865.0521,0,-1.764,3.175,198,8.9,10.03,1.243814,0,50.99,58.38,33.54,35.31
"2016-11-04 17:40:00",260519,0.043,53.27,3.546,59.17,0,0,865.0737,0,-0.962,3.171,197,8.91,10.03,0.1289323,0,51.05,58.32,33.56,35.29
"2016-11-04 17:50:00",260520,0.066,141.6,2.601,68.06,0,0,865.1871,0,-1.216,3.178,208,8.87,10.04,0.007584259,0,50.99,58.38,33.54,35.31
"2016-11-04 18:00:00",260521,0.1,121.2,2.376,67.4,0,0,865.1622,0,0.114,3.166,201,8.84,10.08,0.02654491,0,50.99,58.38,33.54,35.31
"2016-11-04 18:10:00",260522,0.025,65.5,2.597,64.1,0,0,865.0611,0,-1.263,3.174,213,8.82,10.09,0.7167127,0,51.05,58.38,33.56,35.31
"2016-11-04 18:20:00",260523,0.159,145.5,1.961,70.9,0,0,865.0695,0,0.592,3.161,254,8.82,10.06,0.2313199,0,51.05,58.32,33.56,35.29
"2016-11-04 18:30:00",260524,0.025,73.18,1.93,70.69,0,0,865.0611,0,-0.063,3.171,198,8.82,10.04,0.4474714,0,50.99,58.38,33.54,35.31
"2016-11-04 18:40:00",260525,0.129,82.1,2.185,67.16,0,0,865.118,0,-0.062,3.168,214,8.84,10.03,0.9745775,0,50.99,58.32,33.54,35.29
"2016-11-04 18:50:00",260526,0.287,45.58,3.112,62.54,0,0,865.2992,0,0.098,3.157,201,8.79,10.03,1.964324,0,51.05,58.38,33.56,35.31
"2016-11-04 19:00:00",260527,0.359,48.6,3.986,58.52,0,0,865.1728,0,-2.093,3.181,196,8.78,10.03,2.184267,0,50.99,58.38,33.54,35.31
"2016-11-04 19:10:00",260528,0.319,65.87,3.279,61.63,0,0,865.0822,0,-2.218,3.182,193,8.74,10.03,0.6067408,0,50.99,58.32,33.54,35.29
"2016-11-04 19:20:00",260529,0.45,59.83,3.364,61.55,0,0,865.0611,0,-2.874,3.192,187,8.73,10.04,0.8759821,0,51.05,58.38,33.56,35.31
"2016-11-04 19:30:00",260530,0.369,170.4,1.539,73.89,0,0,865.0632,0,0.237,3.171,264,8.72,10.03,0,0,50.99,58.32,33.54,35.29
"2016-11-04 19:40:00",260531,0.535,182.3,1.062,76.31,0,0,865.0653,0,1.04,3.162,292,8.68,10.03,0.05308982,0,50.99,58.32,33.54,35.29
"2016-11-04 19:50:00",260532,0.602,186.3,1.142,75.63,0,0,865.0674,0,0.538,3.168,249,8.71,10.03,0.3299153,0,50.99,58.32,33.54,35.29
"2016-11-04 20:00:00",260533,0.545,184.1,1.15,75.75,0,0,865.1137,0,0.163,3.171,220,8.65,10.04,0.5195218,0,50.99,58.32,33.54,35.29
"2016-11-04 20:10:00",260534,0.484,187.2,1.249,74.93,0,0,865.3098,0,0.187,3.172,214,8.65,10.07,0.6143251,0,51.05,58.32,33.56,35.29
"2016-11-04 20:20:00",260535,0.469,187.4,1.203,74.92,0,0,865.3309,0,0.658,3.167,260,8.68,10.08,0.5422829,0,50.99,58.38,33.54,35.31
"2016-11-04 20:30:00",260536,0.533,186.6,1.003,76.39,0,0,865.4446,0,0.677,3.168,261,8.71,10.09,0.4019881,0,51.05,58.32,33.56,35.29
"2016-11-04 20:40:00",260537,0.534,187.5,1.093,75.85,0,0,865.3161,0,0.249,3.171,240,8.69,10.1,0.6485132,0,50.99,58.32,33.54,35.29
"2016-11-04 20:50:00",260538,0.373,186.8,1.222,74.97,0,0,865.314,0,0.071,3.173,213,8.59,10.09,0.6598904,0,51.05,58.32,33.56,35.29
"2016-11-04 21:00:00",260539,0.531,186.1,0.976,76.54,0,0,865.314,0,0.12,3.173,222,8.61,10.09,0.4247644,0,50.99,58.32,33.54,35.29
"2016-11-04 21:10:00",260540,0.547,179.9,0.937,76.6,0,0,865.3519,0,0.016,3.175,210,8.61,10.12,0.5006245,0,51.05,58.32,33.56,35.29
"2016-11-04 21:20:00",260541,0.483,181.9,0.966,76.45,0,0,865.5458,0,-0.212,3.175,204,8.59,10.14,0.5802853,0,50.99,58.32,33.54,35.29
"2016-11-04 21:30:00",260542,0.393,183.4,1.198,74.09,0,0,865.567,0,-0.038,3.175,209,8.55,10.15,0.6599391,0,50.99,58.38,33.54,35.31
"2016-11-04 21:40:00",260543,0.529,183.3,0.791,77.38,0,0,865.5416,0,0.257,3.173,203,8.52,10.09,0.3792798,0,51.05,58.32,33.56,35.29
"2016-11-04 21:50:00",260544,0.602,183.7,0.833,76.8,0,0,865.432,0,0.202,3.173,201,8.52,10.09,0.6182517,0,51.05,58.32,33.56,35.29
"2016-11-04 22:00:00",260545,0.656,186.8,0.857,76.94,0,0,865.5226,0,-0.001,3.176,196,8.47,10.1,0.6334378,0,50.99,58.32,33.54,35.29
"2016-11-04 22:10:00",260546,0.49,192,0.874,76.32,0,0,865.3289,0,-0.158,3.175,198,8.51,10.09,0.546223,0,50.99,58.32,33.54,35.29
"2016-11-04 22:20:00",260547,0.543,182.5,0.853,76.2,0,0,865.3342,0,0.093,3.174,201,8.55,10.06,0.4703628,0,51.05,58.32,33.56,35.29
"2016-11-04 22:30:00",260548,0.619,187.9,1.056,74.12,0,0,865.3261,0,-0.007,3.174,201,8.47,10.04,0.7586462,0,50.99,58.32,33.54,35.29
"2016-11-04 22:40:00",260549,0.582,183.8,1.051,74.17,0,0,865.298,0,-0.256,3.176,194,8.46,10.04,0.6486396,0,51.05,58.32,33.56,35.29
"2016-11-04 22:50:00",260550,0.452,184,1.335,71.44,0,0,865.2504,0,-0.304,3.175,182,8.42,10.03,0.7851931,0,50.99,58.32,33.54,35.29
"2016-11-04 23:00:00",260551,0.348,152.9,1.869,68.38,0,0,865.1522,0,-0.81,3.174,193,8.44,10.05,1.247973,0,50.99,58.32,33.54,35.29
"2016-11-04 23:10:00",260552,0.194,186.2,2.011,69.38,0,0,865.075,0,0.244,3.164,194,8.46,10.06,0.8383152,0,51.05,58.32,33.56,35.29
"2016-11-04 23:20:00",260553,0.293,166,2.148,69.11,0,0,865.0648,0,-0.731,3.175,200,8.42,10.06,0.9255491,0,50.99,58.32,33.54,35.29
"2016-11-04 23:30:00",260554,0.259,175.5,1.96,70.71,0,0,865.0753,0,-0.504,3.172,204,8.38,10.06,0.663814,0,50.99,58.32,33.54,35.29
"2016-11-04 23:40:00",260555,0.2,176.4,1.916,70.77,0,0,865.0185,0,-0.049,3.168,200,8.37,10.06,0.6486239,0,50.99,58.32,33.54,35.29
"2016-11-04 23:50:00",260556,0.057,331.2,3.023,65.04,0,0,865.0347,0,0.64,3.153,213,8.38,10.05,1.653757,0,50.99,58.32,33.54,35.29
